ARG1875 SAWH-SAEZ

Flight info

Callsign ARG1875
Flight time 3h 45m
Altitude 35000
Route GRA2B GRA UT662 DIL UZ117 GBE GBE7X
Aircraft B738/M-SDE2E3FGHIRWXY/LB1

Departure

Time 2026-05-04 11:05
Airport Ushuaia - Malvinas Argentinas International Airport (SAWH)

Arrival

Time 2026-05-04 14:51
Airport Ezeiza International Airport - Ministro Pistarini (SAEZ)
Time Latitude Longitude Altitude Speed Heading
2026-05-04 10:29 -54.84028 -68.31252 82 ft 0 kts 20°
2026-05-04 10:47 -54.84036 -68.31257 87 ft 4 kts 24°
2026-05-04 10:47 -54.84058 -68.31271 85 ft 3 kts 354°
2026-05-04 10:49 -54.84092 -68.31129 87 ft 0 kts 266°
2026-05-04 10:56 -54.84157 -68.31328 85 ft 9 kts 177°
2026-05-04 10:56 -54.84217 -68.31323 82 ft 9 kts 177°
2026-05-04 10:57 -54.84278 -68.31319 85 ft 9 kts 177°
2026-05-04 10:57 -54.84298 -68.31317 84 ft 0 kts 176°
2026-05-04 10:58 -54.84327 -68.31314 86 ft 9 kts 176°
2026-05-04 10:58 -54.84389 -68.31235 85 ft 16 kts 105°
2026-05-04 10:58 -54.84386 -68.30995 85 ft 24 kts 86°
2026-05-04 10:58 -54.84373 -68.30651 81 ft 33 kts 86°
2026-05-04 10:59 -54.84357 -68.30218 79 ft 39 kts 86°
2026-05-04 10:59 -54.84337 -68.29725 87 ft 43 kts 84°
2026-05-04 10:59 -54.84313 -68.29187 83 ft 47 kts 86°
2026-05-04 10:59 -54.84291 -68.28605 79 ft 48 kts 86°
2026-05-04 11:00 -54.84271 -68.28073 82 ft 40 kts 86°
2026-05-04 11:01 -54.84247 -68.27419 82 ft 0 kts 266°
2026-05-04 11:05 -54.88567 -68.30644 7263 ft 190 kts 76°
2026-05-04 11:06 -54.88223 -68.28354 7667 ft 200 kts 76°
2026-05-04 11:06 -54.87871 -68.25980 8100 ft 205 kts 76°
2026-05-04 11:06 -54.87509 -68.23576 8592 ft 207 kts 76°
2026-05-04 11:06 -54.87139 -68.21154 9085 ft 209 kts 76°
2026-05-04 11:08 -54.87606 -68.03396 11028 ft 268 kts 106°
2026-05-04 11:10 -54.81766 -67.83645 13887 ft 356 kts
2026-05-04 11:12 -54.63803 -67.81005 17915 ft 384 kts
2026-05-04 11:12 -54.61135 -67.80563 18415 ft 387 kts
2026-05-04 11:12 -54.58451 -67.80117 18955 ft 388 kts
2026-05-04 11:12 -54.55751 -67.79670 19472 ft 391 kts
2026-05-04 11:13 -54.53032 -67.79222 19979 ft 394 kts
2026-05-04 11:13 -54.50296 -67.78853 20484 ft 396 kts
2026-05-04 11:13 -54.47533 -67.78644 21006 ft 398 kts
2026-05-04 11:13 -54.44763 -67.78501 21502 ft 400 kts
2026-05-04 11:14 -54.41969 -67.78371 21988 ft 403 kts
2026-05-04 11:14 -54.39163 -67.78235 22466 ft 405 kts
2026-05-04 11:14 -54.36467 -67.78093 22915 ft 407 kts
2026-05-04 11:16 -54.16289 -67.76900 25548 ft 422 kts
2026-05-04 11:16 -54.13347 -67.76724 25888 ft 424 kts
2026-05-04 11:16 -54.10392 -67.76547 26229 ft 426 kts
2026-05-04 11:17 -54.07420 -67.76370 26550 ft 429 kts
2026-05-04 11:17 -54.04433 -67.76192 26870 ft 431 kts
2026-05-04 11:19 -53.83091 -67.74929 29003 ft 445 kts
2026-05-04 11:19 -53.79997 -67.74612 29265 ft 447 kts
2026-05-04 11:19 -53.76955 -67.73504 29516 ft 448 kts 18°
2026-05-04 11:19 -53.74041 -67.71620 29747 ft 449 kts 27°
2026-05-04 11:20 -53.71249 -67.69097 29998 ft 450 kts 29°
2026-05-04 11:20 -53.68548 -67.66562 30235 ft 451 kts 30°
2026-05-04 11:20 -53.65813 -67.63983 30538 ft 450 kts 29°
2026-05-04 11:20 -53.63076 -67.61417 30844 ft 450 kts 29°
2026-05-04 11:22 -53.43821 -67.43819 32754 ft 449 kts 28°
2026-05-04 11:22 -53.41073 -67.41332 32999 ft 449 kts 28°
2026-05-04 11:23 -53.38325 -67.38849 33256 ft 449 kts 27°
2026-05-04 11:23 -53.35576 -67.36369 33456 ft 449 kts 27°
2026-05-04 11:24 -53.18937 -67.21429 34340 ft 456 kts 27°
2026-05-04 11:25 -53.16139 -67.18929 34343 ft 457 kts 27°
2026-05-04 11:25 -53.10541 -67.13939 34339 ft 454 kts 27°
2026-05-04 11:27 -52.85761 -66.92024 34338 ft 447 kts 26°
2026-05-04 11:28 -52.80294 -66.87222 34340 ft 449 kts 26°
2026-05-04 11:28 -52.74737 -66.82336 34336 ft 450 kts 26°
2026-05-04 11:29 -52.69197 -66.77473 34329 ft 452 kts 26°
2026-05-04 11:29 -52.63630 -66.72603 34328 ft 453 kts 26°
2026-05-04 11:33 -52.24501 -66.38771 34313 ft 452 kts 26°
2026-05-04 11:33 -52.18937 -66.34016 34309 ft 451 kts 26°
2026-05-04 11:34 -52.13387 -66.29285 34311 ft 450 kts 26°
2026-05-04 11:34 -52.07838 -66.24571 34311 ft 450 kts 26°
2026-05-04 11:35 -52.02291 -66.19869 34306 ft 449 kts 26°
2026-05-04 11:35 -51.96748 -66.15183 34304 ft 449 kts 26°
2026-05-04 11:36 -51.91203 -66.10510 34304 ft 449 kts 26°
2026-05-04 11:36 -51.85654 -66.05846 34303 ft 450 kts 26°
2026-05-04 11:37 -51.80093 -66.01184 34304 ft 450 kts 26°
2026-05-04 11:37 -51.74361 -65.97166 34305 ft 449 kts 19°
2026-05-04 11:38 -51.68487 -65.93729 34293 ft 450 kts 18°
2026-05-04 11:38 -51.62594 -65.90307 34292 ft 450 kts 18°
2026-05-04 11:39 -51.56702 -65.86824 34289 ft 451 kts 18°
2026-05-04 11:41 -51.36104 -65.74565 34284 ft 452 kts 18°
2026-05-04 11:41 -51.30208 -65.71077 34281 ft 452 kts 18°
2026-05-04 11:42 -51.24314 -65.67601 34285 ft 452 kts 18°
2026-05-04 11:42 -51.18419 -65.64133 34284 ft 452 kts 18°
2026-05-04 11:43 -51.12520 -65.60673 34283 ft 452 kts 18°
2026-05-04 11:43 -51.07621 -65.57806 34285 ft 452 kts 18°
2026-05-04 11:44 -51.01680 -65.54338 34283 ft 452 kts 18°
2026-05-04 11:44 -50.95814 -65.50923 34283 ft 452 kts 18°
2026-05-04 11:45 -50.89910 -65.47496 34283 ft 452 kts 18°
2026-05-04 11:45 -50.84001 -65.44074 34278 ft 452 kts 18°
2026-05-04 11:46 -50.78086 -65.40659 34281 ft 452 kts 17°
2026-05-04 11:46 -50.72165 -65.37249 34284 ft 453 kts 17°
2026-05-04 11:47 -50.66242 -65.33848 34283 ft 453 kts 17°
2026-05-04 11:47 -50.60309 -65.30449 34283 ft 454 kts 17°
2026-05-04 11:48 -50.54373 -65.27058 34290 ft 454 kts 17°
2026-05-04 11:48 -50.48425 -65.23669 34290 ft 455 kts 17°
2026-05-04 11:49 -50.42473 -65.20287 34290 ft 455 kts 17°
2026-05-04 11:49 -50.36514 -65.16910 34291 ft 456 kts 17°
2026-05-04 11:50 -50.30551 -65.13540 34296 ft 456 kts 17°
2026-05-04 11:50 -50.24579 -65.10174 34293 ft 456 kts 17°
2026-05-04 11:51 -50.18599 -65.06812 34295 ft 457 kts 17°
2026-05-04 11:51 -50.12609 -65.03454 34299 ft 457 kts 16°
2026-05-04 11:52 -50.06617 -65.00103 34299 ft 458 kts 16°
2026-05-04 11:52 -50.00613 -64.96755 34307 ft 458 kts 16°
2026-05-04 11:53 -49.94610 -64.93416 34302 ft 459 kts 16°
2026-05-04 11:53 -49.88595 -64.90079 34300 ft 459 kts 16°
2026-05-04 11:55 -49.64487 -64.76794 34304 ft 461 kts 15°
2026-05-04 11:56 -49.58445 -64.73487 34309 ft 461 kts 15°
2026-05-04 11:56 -49.52393 -64.70182 34317 ft 462 kts 15°
2026-05-04 11:57 -49.46337 -64.66885 34316 ft 462 kts 15°
2026-05-04 11:57 -49.40272 -64.63590 34320 ft 463 kts 15°
2026-05-04 11:58 -49.34196 -64.60299 34322 ft 463 kts 15°
2026-05-04 11:58 -49.28112 -64.57012 34319 ft 464 kts 15°
2026-05-04 11:59 -49.22022 -64.53730 34326 ft 464 kts 15°
2026-05-04 11:59 -49.15924 -64.50453 34323 ft 465 kts 15°
2026-05-04 12:00 -49.09821 -64.47181 34322 ft 465 kts 15°
2026-05-04 12:00 -49.03713 -64.43915 34324 ft 465 kts 15°
2026-05-04 12:01 -48.97603 -64.40657 34323 ft 465 kts 15°
2026-05-04 12:02 -48.76209 -64.29314 34323 ft 465 kts 14°
2026-05-04 12:03 -48.70097 -64.26092 34332 ft 465 kts 14°
2026-05-04 12:03 -48.63986 -64.22879 34334 ft 465 kts 14°
2026-05-04 12:04 -48.57870 -64.19672 34338 ft 465 kts 14°
2026-05-04 12:04 -48.51755 -64.16473 34334 ft 465 kts 14°
2026-05-04 12:05 -48.45645 -64.13285 34339 ft 465 kts 14°
2026-05-04 12:05 -48.39536 -64.10105 34340 ft 465 kts 14°
2026-05-04 12:06 -48.33423 -64.06931 34341 ft 465 kts 14°
2026-05-04 12:06 -48.27313 -64.03767 34345 ft 464 kts 14°
2026-05-04 12:07 -48.21204 -64.00613 34346 ft 464 kts 13°
2026-05-04 12:07 -48.15091 -63.97466 34345 ft 464 kts 13°
2026-05-04 12:08 -48.08983 -63.94328 34350 ft 464 kts 13°
2026-05-04 12:08 -48.02875 -63.91196 34354 ft 464 kts 13°
2026-05-04 12:09 -47.96762 -63.88070 34357 ft 464 kts 13°
2026-05-04 12:09 -47.90652 -63.84954 34360 ft 464 kts 13°
2026-05-04 12:10 -47.84539 -63.81843 34362 ft 464 kts 13°
2026-05-04 12:10 -47.78422 -63.78739 34366 ft 464 kts 12°
2026-05-04 12:11 -47.72301 -63.75640 34366 ft 464 kts 12°
2026-05-04 12:11 -47.66172 -63.72544 34368 ft 465 kts 12°
2026-05-04 12:12 -47.60049 -63.69460 34372 ft 465 kts 12°
2026-05-04 12:12 -47.53922 -63.66381 34377 ft 465 kts 12°
2026-05-04 12:14 -47.29358 -63.54113 34390 ft 467 kts 11°
2026-05-04 12:15 -47.23204 -63.51058 34392 ft 467 kts 11°
2026-05-04 12:15 -47.17044 -63.48008 34393 ft 467 kts 11°
2026-05-04 12:16 -47.10879 -63.44963 34393 ft 468 kts 11°
2026-05-04 12:16 -47.04705 -63.41921 34403 ft 468 kts 11°
2026-05-04 12:17 -46.98525 -63.38883 34396 ft 469 kts 11°
2026-05-04 12:17 -46.92342 -63.35851 34410 ft 469 kts 11°
2026-05-04 12:18 -46.86150 -63.32823 34407 ft 469 kts 11°
2026-05-04 12:18 -46.79950 -63.29797 34410 ft 470 kts 10°
2026-05-04 12:19 -46.73753 -63.26781 34413 ft 470 kts 10°
2026-05-04 12:19 -46.67547 -63.23767 34416 ft 470 kts 10°
2026-05-04 12:20 -46.61341 -63.20761 34419 ft 470 kts 10°
2026-05-04 12:20 -46.55129 -63.17759 34423 ft 470 kts 10°
2026-05-04 12:21 -46.48918 -63.14765 34428 ft 471 kts 10°
2026-05-04 12:21 -46.43708 -63.12258 34430 ft 471 kts
2026-05-04 12:22 -46.37489 -63.09274 34427 ft 471 kts
2026-05-04 12:22 -46.31268 -63.06295 34433 ft 471 kts
2026-05-04 12:23 -46.25041 -63.03321 34440 ft 471 kts
2026-05-04 12:23 -46.18810 -63.00352 34441 ft 472 kts
2026-05-04 12:24 -46.12578 -62.97389 34447 ft 472 kts
2026-05-04 12:24 -46.06337 -62.94430 34444 ft 472 kts
2026-05-04 12:25 -46.00095 -62.91477 34455 ft 472 kts
2026-05-04 12:25 -45.93848 -62.88529 34455 ft 473 kts
2026-05-04 12:26 -45.87600 -62.85586 34453 ft 473 kts
2026-05-04 12:26 -45.81348 -62.82650 34461 ft 473 kts
2026-05-04 12:27 -45.75091 -62.79717 34467 ft 473 kts
2026-05-04 12:27 -45.68835 -62.76792 34469 ft 473 kts
2026-05-04 12:28 -45.62568 -62.73869 34478 ft 474 kts
2026-05-04 12:28 -45.56301 -62.70953 34481 ft 474 kts
2026-05-04 12:29 -45.50024 -62.68039 34486 ft 474 kts
2026-05-04 12:29 -45.43747 -62.65132 34487 ft 474 kts
2026-05-04 12:30 -45.37473 -62.62232 34487 ft 474 kts
2026-05-04 12:30 -45.31198 -62.59339 34489 ft 474 kts
2026-05-04 12:31 -45.24918 -62.56450 34495 ft 474 kts
2026-05-04 12:31 -45.18647 -62.53572 34501 ft 474 kts
2026-05-04 12:32 -45.09245 -62.49270 34504 ft 473 kts
2026-05-04 12:33 -45.02983 -62.46412 34505 ft 473 kts
2026-05-04 12:33 -44.96725 -62.43567 34513 ft 472 kts
2026-05-04 12:34 -44.90468 -62.40733 34517 ft 472 kts
2026-05-04 12:34 -44.84218 -62.37907 34523 ft 472 kts
2026-05-04 12:35 -44.77968 -62.35086 34523 ft 471 kts
2026-05-04 12:35 -44.71718 -62.32271 34531 ft 471 kts
2026-05-04 12:36 -44.65472 -62.29465 34537 ft 471 kts
2026-05-04 12:36 -44.59226 -62.26665 34534 ft 471 kts
2026-05-04 12:37 -44.52985 -62.23873 34544 ft 471 kts
2026-05-04 12:37 -44.46738 -62.21085 34545 ft 471 kts
2026-05-04 12:38 -44.40493 -62.18304 34557 ft 471 kts
2026-05-04 12:38 -44.34249 -62.15530 34556 ft 471 kts
2026-05-04 12:39 -44.27966 -62.12745 34556 ft 471 kts
2026-05-04 12:39 -44.21763 -62.10001 34561 ft 471 kts
2026-05-04 12:40 -44.15523 -62.07247 34562 ft 470 kts
2026-05-04 12:40 -44.09242 -62.04480 34569 ft 470 kts
2026-05-04 12:41 -44.03006 -62.01740 34571 ft 470 kts
2026-05-04 12:41 -43.96765 -61.99004 34575 ft 470 kts
2026-05-04 12:42 -43.90529 -61.96277 34583 ft 470 kts
2026-05-04 12:42 -43.84289 -61.93553 34583 ft 470 kts
2026-05-04 12:43 -43.78050 -61.90836 34587 ft 470 kts
2026-05-04 12:43 -43.71809 -61.88124 34592 ft 470 kts
2026-05-04 12:44 -43.65561 -61.85414 34596 ft 471 kts
2026-05-04 12:44 -43.59314 -61.82711 34594 ft 471 kts
2026-05-04 12:45 -43.53057 -61.80010 34600 ft 471 kts
2026-05-04 12:45 -43.46801 -61.77315 34609 ft 471 kts
2026-05-04 12:46 -43.40537 -61.74622 34618 ft 472 kts
2026-05-04 12:46 -43.34261 -61.71930 34608 ft 472 kts
2026-05-04 12:47 -43.27986 -61.69244 34610 ft 473 kts
2026-05-04 12:47 -43.21705 -61.66561 34619 ft 473 kts
2026-05-04 12:48 -43.15424 -61.63884 34617 ft 473 kts
2026-05-04 12:48 -43.09137 -61.61210 34624 ft 473 kts
2026-05-04 12:49 -43.02844 -61.58538 34626 ft 473 kts
2026-05-04 12:49 -42.96551 -61.55873 34632 ft 474 kts
2026-05-04 12:50 -42.90259 -61.53214 34633 ft 474 kts
2026-05-04 12:50 -42.83964 -61.50557 34634 ft 474 kts
2026-05-04 12:51 -42.77669 -61.47905 34648 ft 474 kts
2026-05-04 12:51 -42.71374 -61.45258 34644 ft 474 kts
2026-05-04 12:52 -42.65076 -61.42616 34644 ft 473 kts
2026-05-04 12:52 -42.58781 -61.39981 34649 ft 473 kts
2026-05-04 12:53 -42.52490 -61.37353 34654 ft 473 kts
2026-05-04 12:53 -42.46196 -61.34729 34659 ft 473 kts
2026-05-04 12:54 -42.39906 -61.32113 34663 ft 473 kts
2026-05-04 12:54 -42.33614 -61.29501 34668 ft 473 kts
2026-05-04 12:55 -42.27327 -61.26897 34671 ft 473 kts
2026-05-04 12:55 -42.21036 -61.24297 34671 ft 473 kts
2026-05-04 12:56 -42.14748 -61.21703 34678 ft 472 kts
2026-05-04 12:56 -42.08461 -61.19115 34680 ft 472 kts
2026-05-04 12:57 -42.02173 -61.16532 34685 ft 472 kts
2026-05-04 12:57 -41.95885 -61.13954 34686 ft 472 kts
2026-05-04 12:58 -41.90621 -61.11800 34692 ft 472 kts
2026-05-04 12:58 -41.84332 -61.09232 34708 ft 472 kts
2026-05-04 12:59 -41.78046 -61.06670 34709 ft 472 kts
2026-05-04 12:59 -41.71758 -61.04113 34701 ft 472 kts
2026-05-04 13:00 -41.65469 -61.01560 34707 ft 472 kts
2026-05-04 13:00 -41.59178 -60.99012 34703 ft 472 kts
2026-05-04 13:01 -41.52890 -60.96470 34709 ft 472 kts
2026-05-04 13:01 -41.46602 -60.93933 34712 ft 472 kts
2026-05-04 13:02 -41.40317 -60.91403 34718 ft 472 kts
2026-05-04 13:02 -41.34029 -60.88876 34734 ft 472 kts
2026-05-04 13:03 -41.27749 -60.86358 34728 ft 471 kts
2026-05-04 13:03 -41.21470 -60.83845 34733 ft 471 kts
2026-05-04 13:04 -41.15190 -60.81337 34733 ft 471 kts
2026-05-04 13:04 -41.08916 -60.78837 34729 ft 471 kts
2026-05-04 13:05 -41.02641 -60.76340 34733 ft 470 kts
2026-05-04 13:05 -40.96378 -60.73854 34737 ft 470 kts
2026-05-04 13:06 -40.90119 -60.71374 34742 ft 469 kts
2026-05-04 13:06 -40.83862 -60.68900 34742 ft 469 kts
2026-05-04 13:07 -40.77612 -60.66433 34748 ft 469 kts
2026-05-04 13:07 -40.71364 -60.63972 34752 ft 468 kts
2026-05-04 13:08 -40.65119 -60.61517 34757 ft 468 kts
2026-05-04 13:08 -40.58875 -60.59067 34758 ft 468 kts
2026-05-04 13:09 -40.52642 -60.56625 34764 ft 468 kts
2026-05-04 13:09 -40.46408 -60.54157 34759 ft 469 kts
2026-05-04 13:10 -40.40190 -60.51522 34771 ft 470 kts
2026-05-04 13:10 -40.33978 -60.48852 34768 ft 469 kts
2026-05-04 13:11 -40.27769 -60.46205 34776 ft 469 kts
2026-05-04 13:11 -40.21560 -60.43580 34775 ft 469 kts
2026-05-04 13:12 -40.15354 -60.40966 34777 ft 469 kts
2026-05-04 13:12 -40.09147 -60.38356 34781 ft 468 kts
2026-05-04 13:13 -40.02944 -60.35753 34783 ft 468 kts
2026-05-04 13:13 -39.96742 -60.33155 34785 ft 468 kts
2026-05-04 13:14 -39.90539 -60.30561 34788 ft 468 kts
2026-05-04 13:14 -39.84344 -60.27976 34794 ft 468 kts
2026-05-04 13:15 -39.78141 -60.25391 34794 ft 468 kts
2026-05-04 13:15 -39.71943 -60.22814 34796 ft 468 kts
2026-05-04 13:16 -39.65735 -60.20238 34798 ft 468 kts
2026-05-04 13:16 -39.59519 -60.17664 34805 ft 469 kts
2026-05-04 13:17 -39.53297 -60.15092 34809 ft 469 kts
2026-05-04 13:17 -39.47073 -60.12523 34811 ft 470 kts
2026-05-04 13:18 -39.40837 -60.09955 34814 ft 471 kts
2026-05-04 13:18 -39.34590 -60.07387 34818 ft 471 kts
2026-05-04 13:19 -39.28334 -60.04820 34816 ft 472 kts
2026-05-04 13:19 -39.22065 -60.02252 34821 ft 473 kts
2026-05-04 13:20 -39.15782 -59.99684 34824 ft 474 kts
2026-05-04 13:20 -39.09486 -59.97115 34832 ft 475 kts
2026-05-04 13:21 -39.03179 -59.94546 34833 ft 476 kts
2026-05-04 13:21 -38.96857 -59.91976 34839 ft 477 kts
2026-05-04 13:22 -38.90523 -59.89406 34841 ft 478 kts
2026-05-04 13:22 -38.84181 -59.86837 34845 ft 478 kts
2026-05-04 13:23 -38.77826 -59.84268 34852 ft 479 kts
2026-05-04 13:23 -38.71467 -59.81702 34846 ft 479 kts
2026-05-04 13:24 -38.65103 -59.79138 34852 ft 480 kts
2026-05-04 13:24 -38.58733 -59.76578 34866 ft 480 kts
2026-05-04 13:25 -38.49134 -59.72727 34865 ft 480 kts
2026-05-04 13:25 -38.42761 -59.70177 34858 ft 480 kts
2026-05-04 13:26 -38.36390 -59.67631 34865 ft 480 kts
2026-05-04 13:26 -38.30020 -59.65092 34870 ft 480 kts
2026-05-04 13:27 -38.23652 -59.62565 34876 ft 479 kts
2026-05-04 13:27 -38.17282 -59.60042 34876 ft 480 kts
2026-05-04 13:28 -38.10907 -59.57520 34874 ft 480 kts
2026-05-04 13:28 -38.04538 -59.55004 34882 ft 480 kts
2026-05-04 13:29 -37.98162 -59.52491 34871 ft 480 kts
2026-05-04 13:29 -37.91785 -59.49981 34889 ft 480 kts
2026-05-04 13:30 -37.85390 -59.47469 34888 ft 481 kts
2026-05-04 13:30 -37.79003 -59.44965 34888 ft 481 kts
2026-05-04 13:31 -37.72609 -59.42462 34893 ft 481 kts
2026-05-04 13:31 -37.66207 -59.39961 34895 ft 482 kts
2026-05-04 13:32 -37.59802 -59.37463 34902 ft 482 kts
2026-05-04 13:32 -37.53383 -59.34964 34909 ft 483 kts
2026-05-04 13:33 -37.46954 -59.32466 34912 ft 484 kts
2026-05-04 13:33 -37.41611 -59.30392 34906 ft 481 kts
2026-05-04 13:34 -37.35314 -59.27943 34907 ft 469 kts
2026-05-04 13:34 -37.29093 -59.25544 34901 ft 467 kts
2026-05-04 13:35 -37.20030 -59.21804 34898 ft 444 kts 13°
2026-05-04 13:36 -37.14340 -59.18791 34921 ft 447 kts 14°
2026-05-04 13:36 -37.08561 -59.15681 34929 ft 456 kts 14°
2026-05-04 13:37 -37.02714 -59.12564 34919 ft 457 kts 14°
2026-05-04 13:37 -36.96856 -59.09467 34927 ft 457 kts 14°
2026-05-04 13:38 -36.90999 -59.06387 34932 ft 456 kts 14°
2026-05-04 13:38 -36.85156 -59.03321 34937 ft 455 kts 14°
2026-05-04 13:39 -36.79320 -59.00265 34949 ft 454 kts 14°
2026-05-04 13:39 -36.73500 -58.97221 34949 ft 453 kts 14°
2026-05-04 13:40 -36.67698 -58.94192 34958 ft 452 kts 14°
2026-05-04 13:40 -36.61902 -58.91171 34962 ft 451 kts 14°
2026-05-04 13:41 -36.56116 -58.88160 34956 ft 450 kts 14°
2026-05-04 13:41 -36.50339 -58.85159 34960 ft 450 kts 14°
2026-05-04 13:42 -36.41680 -58.80670 34958 ft 449 kts 14°
2026-05-04 13:42 -36.35909 -58.77683 34964 ft 449 kts 14°
2026-05-04 13:43 -36.30134 -58.74700 34969 ft 450 kts 14°
2026-05-04 13:43 -36.24352 -58.71718 34969 ft 450 kts 14°
2026-05-04 13:44 -36.18569 -58.68740 34970 ft 450 kts 14°
2026-05-04 13:44 -36.12775 -58.65761 34968 ft 451 kts 14°
2026-05-04 13:45 -36.06977 -58.62784 34967 ft 451 kts 14°
2026-05-04 13:45 -36.01168 -58.59807 34964 ft 452 kts 14°
2026-05-04 13:46 -35.95355 -58.56832 34977 ft 452 kts 14°
2026-05-04 13:46 -35.89540 -58.53860 34977 ft 452 kts 15°
2026-05-04 13:47 -35.83721 -58.50891 34980 ft 453 kts 15°
2026-05-04 13:47 -35.77900 -58.47926 34981 ft 453 kts 15°
2026-05-04 13:48 -35.74963 -58.46605 34958 ft 443 kts
2026-05-04 13:48 -35.71987 -58.46222 35007 ft 424 kts 351°
2026-05-04 13:48 -35.66098 -58.46136 34978 ft 422 kts 350°
2026-05-04 13:49 -35.63184 -58.46152 34732 ft 410 kts 342°
2026-05-04 13:49 -35.60483 -58.46924 34040 ft 392 kts 324°
2026-05-04 13:49 -35.58222 -58.48661 33073 ft 377 kts 305°
2026-05-04 13:49 -35.56692 -58.51149 32457 ft 357 kts 286°
2026-05-04 13:50 -35.55960 -58.53979 32085 ft 342 kts 275°
2026-05-04 13:50 -35.55556 -58.56833 31681 ft 338 kts 273°
2026-05-04 13:50 -35.55228 -58.59702 31167 ft 339 kts 272°
2026-05-04 13:50 -35.54932 -58.62580 30667 ft 340 kts 272°
2026-05-04 13:51 -35.54648 -58.65463 30203 ft 341 kts 272°
2026-05-04 13:51 -35.54374 -58.68362 29669 ft 342 kts 272°
2026-05-04 13:51 -35.54111 -58.71263 29118 ft 342 kts 272°
2026-05-04 13:51 -35.53856 -58.74164 28579 ft 342 kts 272°
2026-05-04 13:52 -35.53369 -58.79967 27537 ft 342 kts 272°
2026-05-04 13:52 -35.53134 -58.82871 27026 ft 341 kts 272°
2026-05-04 13:52 -35.52906 -58.85770 26525 ft 341 kts 272°
2026-05-04 13:53 -35.52686 -58.88671 26032 ft 341 kts 272°
2026-05-04 13:53 -35.52778 -58.91553 25538 ft 337 kts 259°
2026-05-04 13:53 -35.53334 -58.94345 25071 ft 337 kts 252°
2026-05-04 13:54 -35.55422 -58.99479 24147 ft 339 kts 238°
2026-05-04 13:54 -35.56918 -59.01729 23697 ft 342 kts 230°
2026-05-04 13:54 -35.60679 -59.05369 22654 ft 350 kts 216°
2026-05-04 13:55 -35.62882 -59.06688 22145 ft 355 kts 208°
2026-05-04 13:55 -35.67734 -59.08171 21134 ft 366 kts 193°
2026-05-04 13:55 -35.70298 -59.08296 20645 ft 372 kts 186°
2026-05-04 13:56 -35.72891 -59.08026 20167 ft 376 kts 181°
2026-05-04 13:56 -35.75486 -59.07597 19692 ft 376 kts 179°
2026-05-04 13:56 -35.80635 -59.06187 18755 ft 377 kts 177°
2026-05-04 13:57 -35.83209 -59.05639 18305 ft 374 kts 179°
2026-05-04 13:57 -35.85780 -59.05149 17783 ft 373 kts 179°
2026-05-04 13:58 -35.93452 -59.03762 16262 ft 370 kts 179°
2026-05-04 13:58 -35.98530 -59.02892 15289 ft 367 kts 179°
2026-05-04 13:58 -36.01064 -59.02475 14816 ft 366 kts 179°
2026-05-04 13:59 -36.03585 -59.02071 14339 ft 365 kts 179°
2026-05-04 13:59 -36.06097 -59.01682 13883 ft 364 kts 179°
2026-05-04 13:59 -36.11136 -59.00950 12848 ft 361 kts 179°
2026-05-04 14:00 -36.13625 -59.00623 12346 ft 359 kts 179°
2026-05-04 14:00 -36.18586 -59.00029 11354 ft 357 kts 179°
2026-05-04 14:00 -36.21030 -58.99762 10872 ft 356 kts 179°
2026-05-04 14:01 -36.23493 -58.99512 10401 ft 355 kts 179°
2026-05-04 14:01 -36.25955 -58.99277 9927 ft 354 kts 179°
2026-05-04 14:01 -36.30858 -58.98849 8914 ft 352 kts 179°
2026-05-04 14:02 -36.33305 -58.98648 8409 ft 351 kts 179°
2026-05-04 14:02 -36.35740 -58.98452 7919 ft 350 kts 179°
2026-05-04 14:02 -36.38169 -58.98260 7426 ft 349 kts 179°
2026-05-04 14:02 -36.40597 -58.98073 6945 ft 348 kts 179°
2026-05-04 14:03 -36.43013 -58.97892 6471 ft 347 kts 179°
2026-05-04 14:03 -36.45419 -58.97715 6082 ft 344 kts 179°
2026-05-04 14:03 -36.47758 -58.97539 5986 ft 330 kts 179°
2026-05-04 14:03 -36.50003 -58.97364 5967 ft 316 kts 180°
2026-05-04 14:04 -36.54209 -58.97013 5946 ft 290 kts 180°
2026-05-04 14:04 -36.56182 -58.96836 5949 ft 278 kts 180°
2026-05-04 14:04 -36.58117 -58.96656 5950 ft 273 kts 180°
2026-05-04 14:05 -36.61924 -58.96305 5970 ft 276 kts 180°
2026-05-04 14:05 -36.63843 -58.96130 5966 ft 277 kts 180°
2026-05-04 14:05 -36.65769 -58.95955 5960 ft 278 kts 180°
2026-05-04 14:06 -36.67695 -58.95780 5957 ft 278 kts 180°
2026-05-04 14:06 -36.69620 -58.95605 5961 ft 277 kts 180°
2026-05-04 14:06 -36.71540 -58.95429 5960 ft 277 kts 180°
2026-05-04 14:06 -36.73459 -58.95255 5961 ft 276 kts 180°
2026-05-04 14:07 -36.75375 -58.95079 5960 ft 276 kts 180°
2026-05-04 14:07 -36.77294 -58.94904 5956 ft 276 kts 180°
2026-05-04 14:07 -36.79210 -58.94728 5956 ft 276 kts 180°
2026-05-04 14:07 -36.81125 -58.94551 5948 ft 276 kts 180°
2026-05-04 14:08 -36.83037 -58.94374 5948 ft 275 kts 180°
2026-05-04 14:08 -36.84943 -58.94195 5945 ft 274 kts 180°
2026-05-04 14:08 -36.86845 -58.94017 5940 ft 274 kts 180°
2026-05-04 14:08 -36.88739 -58.93839 5937 ft 273 kts 180°
2026-05-04 14:09 -36.92509 -58.93487 5945 ft 271 kts 180°
2026-05-04 14:09 -36.94390 -58.93313 5944 ft 271 kts 180°
2026-05-04 14:10 -36.97521 -58.93029 5944 ft 272 kts 180°
2026-05-04 14:10 -36.99413 -58.92861 5942 ft 273 kts 180°
2026-05-04 14:10 -37.01315 -58.92693 5939 ft 274 kts 180°
2026-05-04 14:10 -37.03218 -58.92512 5913 ft 276 kts 177°
2026-05-04 14:11 -37.05134 -58.92137 5649 ft 280 kts 174°
2026-05-04 14:11 -37.08943 -58.91239 5157 ft 277 kts 173°
2026-05-04 14:11 -37.10821 -58.90778 4974 ft 272 kts 173°
2026-05-04 14:12 -37.12656 -58.90315 4923 ft 267 kts 173°
2026-05-04 14:12 -37.14464 -58.89852 4927 ft 264 kts 173°
2026-05-04 14:12 -37.18064 -58.88786 4922 ft 270 kts 164°
2026-05-04 14:13 -37.19771 -58.87778 4913 ft 273 kts 153°
2026-05-04 14:13 -37.21322 -58.86384 4920 ft 276 kts 142°
2026-05-04 14:13 -37.22661 -58.84650 4922 ft 278 kts 131°
2026-05-04 14:13 -37.23743 -58.82627 4922 ft 281 kts 120°
2026-05-04 14:14 -37.24529 -58.80382 4926 ft 282 kts 109°
2026-05-04 14:14 -37.25042 -58.75536 4904 ft 282 kts 76°
2026-05-04 14:14 -37.24165 -58.73416 4916 ft 272 kts 40°
2026-05-04 14:15 -37.20887 -58.71366 4916 ft 264 kts 15°
2026-05-04 14:15 -37.17350 -58.70320 4923 ft 260 kts
2026-05-04 14:16 -37.13742 -58.69975 4914 ft 260 kts 360°
2026-05-04 14:16 -37.11940 -58.69802 4928 ft 260 kts 360°
2026-05-04 14:17 -37.08327 -58.69421 4923 ft 261 kts
2026-05-04 14:17 -37.06496 -58.69212 4922 ft 261 kts
2026-05-04 14:17 -37.02882 -58.68782 4929 ft 261 kts
2026-05-04 14:18 -37.01080 -58.68561 4920 ft 260 kts
2026-05-04 14:18 -36.97498 -58.68116 4932 ft 258 kts
2026-05-04 14:19 -36.93925 -58.67667 4948 ft 259 kts
2026-05-04 14:19 -36.92131 -58.67441 4936 ft 260 kts
2026-05-04 14:19 -36.90332 -58.67214 4951 ft 260 kts
2026-05-04 14:19 -36.88528 -58.66986 4945 ft 261 kts
2026-05-04 14:20 -36.86724 -58.66757 4940 ft 260 kts
2026-05-04 14:20 -36.84925 -58.66528 4956 ft 260 kts
2026-05-04 14:20 -36.83122 -58.66300 4930 ft 260 kts
2026-05-04 14:21 -36.79522 -58.65843 4943 ft 260 kts
2026-05-04 14:21 -36.77723 -58.65615 4954 ft 259 kts
2026-05-04 14:21 -36.75929 -58.65387 4955 ft 259 kts
2026-05-04 14:21 -36.74136 -58.65160 4942 ft 259 kts
2026-05-04 14:22 -36.72343 -58.64932 4951 ft 259 kts
2026-05-04 14:22 -36.70554 -58.64706 4960 ft 258 kts
2026-05-04 14:22 -36.68772 -58.64480 4958 ft 257 kts
2026-05-04 14:22 -36.66991 -58.64255 4961 ft 257 kts
2026-05-04 14:23 -36.63425 -58.63805 4968 ft 258 kts
2026-05-04 14:23 -36.61637 -58.63579 4961 ft 258 kts
2026-05-04 14:23 -36.59849 -58.63352 4947 ft 258 kts
2026-05-04 14:24 -36.58063 -58.63126 4963 ft 257 kts
2026-05-04 14:24 -36.56284 -58.62901 4964 ft 257 kts
2026-05-04 14:24 -36.54508 -58.62677 4950 ft 257 kts
2026-05-04 14:24 -36.52733 -58.62453 4961 ft 255 kts
2026-05-04 14:25 -36.50971 -58.62232 4963 ft 254 kts
2026-05-04 14:25 -36.47458 -58.61789 4960 ft 253 kts
2026-05-04 14:25 -36.45707 -58.61569 4967 ft 253 kts
2026-05-04 14:26 -36.43954 -58.61348 4974 ft 254 kts
2026-05-04 14:26 -36.42192 -58.61127 4972 ft 254 kts
2026-05-04 14:26 -36.40431 -58.60906 4966 ft 255 kts
2026-05-04 14:26 -36.38666 -58.60684 4972 ft 255 kts
2026-05-04 14:27 -36.36900 -58.60463 4961 ft 255 kts
2026-05-04 14:27 -36.35137 -58.60241 4957 ft 254 kts
2026-05-04 14:27 -36.33382 -58.60020 4962 ft 253 kts
2026-05-04 14:27 -36.31632 -58.59801 4960 ft 252 kts
2026-05-04 14:28 -36.29887 -58.59582 4958 ft 252 kts
2026-05-04 14:28 -36.28150 -58.59364 4959 ft 251 kts 360°
2026-05-04 14:28 -36.26417 -58.59147 4960 ft 250 kts 360°
2026-05-04 14:28 -36.24696 -58.58931 4961 ft 248 kts 360°
2026-05-04 14:29 -36.21261 -58.58502 4967 ft 247 kts 360°
2026-05-04 14:29 -36.17831 -58.58074 4973 ft 248 kts 359°
2026-05-04 14:30 -36.16107 -58.57859 4972 ft 249 kts 359°
2026-05-04 14:30 -36.14376 -58.57644 4979 ft 250 kts 360°
2026-05-04 14:30 -36.10900 -58.57210 4966 ft 251 kts 359°
2026-05-04 14:31 -36.09160 -58.56993 4969 ft 251 kts 360°
2026-05-04 14:31 -36.05690 -58.56561 4968 ft 250 kts 360°
2026-05-04 14:32 -36.02230 -58.56130 4969 ft 250 kts 360°
2026-05-04 14:32 -36.00502 -58.55915 4975 ft 249 kts 360°
2026-05-04 14:32 -35.98776 -58.55700 4974 ft 250 kts 360°
2026-05-04 14:32 -35.97048 -58.55485 4976 ft 249 kts 359°
2026-05-04 14:33 -35.95320 -58.55270 4981 ft 250 kts 359°
2026-05-04 14:33 -35.93584 -58.55056 4969 ft 251 kts 360°
2026-05-04 14:33 -35.91848 -58.54840 4978 ft 251 kts 360°
2026-05-04 14:33 -35.90113 -58.54625 4965 ft 250 kts 360°
2026-05-04 14:34 -35.88385 -58.54410 4965 ft 249 kts 360°
2026-05-04 14:34 -35.86663 -58.54197 4966 ft 248 kts 360°
2026-05-04 14:34 -35.84948 -58.53984 4969 ft 247 kts 360°
2026-05-04 14:34 -35.83240 -58.53772 4966 ft 247 kts 360°
2026-05-04 14:35 -35.81534 -58.53560 4972 ft 246 kts 359°
2026-05-04 14:35 -35.79828 -58.53349 4975 ft 247 kts 359°
2026-05-04 14:35 -35.78095 -58.53136 4967 ft 248 kts 360°
2026-05-04 14:35 -35.76402 -58.52926 4984 ft 248 kts 360°
2026-05-04 14:36 -35.74657 -58.52712 4977 ft 249 kts 360°
2026-05-04 14:36 -35.72930 -58.52499 4980 ft 250 kts 360°
2026-05-04 14:36 -35.71198 -58.52285 4974 ft 250 kts 360°
2026-05-04 14:36 -35.69470 -58.52071 4964 ft 249 kts
2026-05-04 14:37 -35.67749 -58.51858 4971 ft 248 kts
2026-05-04 14:37 -35.66033 -58.51647 4969 ft 248 kts
2026-05-04 14:37 -35.64317 -58.51435 4969 ft 247 kts
2026-05-04 14:37 -35.62605 -58.51224 4974 ft 247 kts
2026-05-04 14:38 -35.60893 -58.51014 4986 ft 247 kts
2026-05-04 14:38 -35.59177 -58.50803 4988 ft 248 kts
2026-05-04 14:38 -35.57452 -58.50591 4980 ft 250 kts
2026-05-04 14:38 -35.55723 -58.50377 4976 ft 250 kts
2026-05-04 14:39 -35.53991 -58.50165 4976 ft 250 kts
2026-05-04 14:39 -35.52258 -58.49953 4980 ft 251 kts
2026-05-04 14:39 -35.50519 -58.49739 4949 ft 252 kts
2026-05-04 14:40 -35.46981 -58.49306 4419 ft 255 kts
2026-05-04 14:40 -35.45219 -58.49089 4170 ft 254 kts
2026-05-04 14:40 -35.43469 -58.48874 3923 ft 253 kts
2026-05-04 14:40 -35.41720 -58.48659 3684 ft 252 kts
2026-05-04 14:41 -35.39971 -58.48445 3438 ft 253 kts
2026-05-04 14:41 -35.38219 -58.48230 3190 ft 253 kts
2026-05-04 14:41 -35.34773 -58.47804 3003 ft 243 kts
2026-05-04 14:42 -35.31420 -58.47396 3019 ft 243 kts
2026-05-04 14:42 -35.29724 -58.47189 2997 ft 247 kts
2026-05-04 14:42 -35.28000 -58.46980 2999 ft 250 kts
2026-05-04 14:43 -35.26278 -58.46769 3021 ft 249 kts
2026-05-04 14:43 -35.24549 -58.46560 3012 ft 250 kts
2026-05-04 14:43 -35.22831 -58.46349 2992 ft 246 kts
2026-05-04 14:43 -35.21146 -58.46142 3012 ft 242 kts
2026-05-04 14:44 -35.19469 -58.45939 2999 ft 243 kts
2026-05-04 14:44 -35.17785 -58.45733 2994 ft 243 kts
2026-05-04 14:44 -35.16107 -58.45529 3009 ft 242 kts
2026-05-04 14:44 -35.14423 -58.45324 3009 ft 244 kts
2026-05-04 14:45 -35.12734 -58.45119 2993 ft 243 kts
2026-05-04 14:45 -35.11054 -58.44917 3010 ft 244 kts
2026-05-04 14:45 -35.09361 -58.44702 3012 ft 246 kts
2026-05-04 14:45 -35.07662 -58.44627 2946 ft 240 kts 348°
2026-05-04 14:46 -35.06058 -58.45074 2861 ft 234 kts 343°
2026-05-04 14:46 -35.04998 -58.45384 2798 ft 229 kts 343°
2026-05-04 14:46 -35.03474 -58.45824 2742 ft 222 kts 343°
2026-05-04 14:46 -35.01978 -58.46231 2647 ft 219 kts 345°
2026-05-04 14:47 -35.00502 -58.46606 2546 ft 215 kts 342°
2026-05-04 14:47 -34.99070 -58.47056 2486 ft 210 kts 341°
2026-05-04 14:47 -34.97683 -58.47533 2410 ft 206 kts 340°
2026-05-04 14:47 -34.96303 -58.48015 2330 ft 207 kts 340°
2026-05-04 14:48 -34.94918 -58.48495 2196 ft 203 kts 340°
2026-05-04 14:48 -34.93620 -58.48942 2103 ft 189 kts 339°
2026-05-04 14:48 -34.92382 -58.49378 1896 ft 182 kts 339°
2026-05-04 14:48 -34.91177 -58.49777 1633 ft 175 kts 338°
2026-05-04 14:49 -34.90010 -58.50203 1409 ft 175 kts 340°
2026-05-04 14:49 -34.88860 -58.50601 1152 ft 168 kts 341°
2026-05-04 14:49 -34.87775 -58.50980 943 ft 157 kts 341°
2026-05-04 14:49 -34.86767 -58.51329 728 ft 145 kts 341°
2026-05-04 14:50 -34.85845 -58.51650 542 ft 131 kts 341°
2026-05-04 14:50 -34.85001 -58.51953 511 ft 122 kts 338°
2026-05-04 14:50 -34.84166 -58.52238 359 ft 128 kts 341°
2026-05-04 14:50 -34.83310 -58.52534 141 ft 124 kts 341°
2026-05-04 14:51 -34.82540 -58.52802 84 ft 104 kts 342°
2026-05-04 14:51 -34.81988 -58.52994 82 ft 61 kts 343°
2026-05-04 14:51 -34.81729 -58.53083 73 ft 17 kts 344°
2026-05-04 14:51 -34.81638 -58.53114 73 ft 13 kts 344°
2026-05-04 14:52 -34.81561 -58.53166 80 ft 13 kts 312°
2026-05-04 14:52 -34.81511 -58.53254 71 ft 12 kts 301°
2026-05-04 14:52 -34.81470 -58.53345 69 ft 12 kts 299°
2026-05-04 14:52 -34.81455 -58.53380 75 ft 0 kts 298°
2026-05-04 14:53 -34.81454 -58.53382 72 ft 3 kts 298°
2026-05-04 14:53 -34.81418 -58.53461 67 ft 18 kts 299°
2026-05-04 14:54 -34.81363 -58.53574 70 ft 13 kts 319°
2026-05-04 14:54 -34.81285 -58.53616 72 ft 13 kts 295°
2026-05-04 14:54 -34.81297 -58.53687 73 ft 4 kts 244°
2026-05-04 14:54 -34.81301 -58.53696 65 ft 0 kts 243°